Nassau, Bahamas

12:05 PM EDT on July 28, 2017 (GMT -0400)
Nassau International

Weather History for MYNN - December, 2012

Change the Weather History Date:

Sunday, December 9, 2012

  Actual Average Record
Temperature  
Mean Temperature 76 °F -  
Max Temperature 83 °F 78 °F 87 °F (2011)
Min Temperature 68 °F 63 °F 50 °F (2010)
Cooling Degree Days 10    
Growing Degree Days 26 (Base 50)    
Moisture  
Dew Point 70 °F    
Average Humidity 85    
Maximum Humidity 100    
Minimum Humidity 69    
Precipitation  
Precipitation 0.00 in 0.07 in - ()
Sea Level Pressure  
Sea Level Pressure 30.02 in    
Wind  
Wind Speed 5 mph ()    
Max Wind Speed 16 mph    
Max Gust Speed -    
Visibility 6.7 miles    
Events Rain , Thunderstorm    
Averages and records for this station are not official NWS values.
T = Trace of Precipitation, MM = Missing Value Source: Averaged Metar Reports

Daily Weather History Graph

Daily Weather History Graph

Search for Another Location

Airport or City:

Trip Planner

Search our weather history database for the weather conditions in past years. The results will help you decide how hot, cold, wet, or windy it might be!

Date:

Astronomy

Dec. 09, 2012 Rise Set
Actual Time 6:43 AM EST 5:21 PM EST
Civil Twilight 6:18 AM EST 5:46 PM EST
Nautical Twilight 5:50 AM EST 6:14 PM EST
Astronomical Twilight 5:22 AM EST 6:42 PM EST
Moon 2:33 AM EST (12/9) 2:10 PM EST (12/9)
Length of Visible Light 11h 27m
Length of Day
10h 37m
Waning Crescent, 19% of the Moon is Illuminated
Dec 9
Waning Crescent
Dec 13
New
Dec 20
First Quarter
Dec 28
Full
Jan 4
Last Quarter

Hourly Weather History & Observations

Time (EST) Temp. Heat Index Dew Point Humidity Pressure Visibility Wind Dir Wind Speed Gust Speed Precip Events Conditions
12:00 AM 71.6 °F - 66.2 °F 83% 29.97 in 6.2 mi East 11.5 mph - N/A   Mostly Cloudy
1:00 AM 76 °F - 74 °F 90% 30.05 in 9 mi ENE 3.5 mph - -   Partly Cloudy
1:00 AM 71.6 °F - 66.2 °F 83% 29.98 in 6.2 mi Calm Calm - N/A   Mostly Cloudy
2:00 AM 71.6 °F - 68.0 °F 88% 29.98 in 6.2 mi Calm Calm - N/A   Mostly Cloudy
3:00 AM 69.8 °F - 66.2 °F 88% 29.96 in 6.2 mi Calm Calm - N/A   Mostly Cloudy
4:00 AM 75 °F - 74 °F 94% 30.03 in 9 mi 2.3 mph - -   Mostly Cloudy
4:00 AM 68.0 °F - 68.0 °F 100% 29.96 in 6.2 mi Calm Calm - N/A   Scattered Clouds
5:00 AM 71.6 °F - 66.2 °F 83% 29.93 in 6.2 mi East 12.7 mph - N/A   Mostly Cloudy
6:00 AM 69.8 °F - 66.2 °F 88% 29.96 in 6.2 mi Calm Calm - N/A   Scattered Clouds
7:00 AM 74 °F - 73 °F 94% 30.07 in 9 mi 2.3 mph - -   Partly Cloudy
7:00 AM 75.2 °F - 73.4 °F 94% 30.07 in 6.2 mi Variable 2.3 mph - N/A   Scattered Clouds
8:00 AM 73.4 °F - 69.8 °F 88% 29.99 in 6.2 mi Variable 1.2 mph - N/A   Scattered Clouds
9:00 AM 77.0 °F - 69.8 °F 78% 30.00 in 6.2 mi Variable 2.3 mph - N/A   Scattered Clouds
10:00 AM 79 °F - 74 °F 79% 30.12 in 9 mi East 13.8 mph - -   Partly Cloudy
10:00 AM 78.8 °F - 73.4 °F 83% 30.12 in 6.2 mi East 13.8 mph - N/A   Scattered Clouds
11:00 AM 71.6 °F - 68.0 °F 88% 30.01 in - ENE 4.6 mph - N/A Rain Heavy Rain Showers
12:00 PM 77.0 °F - 66.2 °F 69% 30.09 in 6.2 mi NNE 9.2 mph - N/A   Mostly Cloudy
1:00 PM 82 °F - 75 °F 74% 30.06 in 9 mi East 1.2 mph - -   Mostly Cloudy
1:00 PM 82.4 °F 88.2 °F 73.4 °F 74% 29.98 in 6.2 mi East 10.4 mph - N/A   Mostly Cloudy
2:00 PM 71.6 °F - 68.0 °F 88% 29.93 in 5.6 mi Calm Calm - N/A   Mostly Cloudy
3:00 PM 71.6 °F - 68.0 °F 88% 29.93 in 5.0 mi NE 6.9 mph - N/A Rain Light Rain Showers
4:00 PM 81 °F - 75 °F 76% 30.02 in 9 mi ESE 16.1 mph - -   Mostly Cloudy
4:00 PM 69.8 °F - 68.0 °F 94% 29.94 in 5.6 mi NNE 5.8 mph - N/A Rain Rain Showers
5:00 PM 69.8 °F - 66.2 °F 88% 29.95 in 3.7 mi NNE 9.2 mph - N/A Rain , Thunderstorm Thunderstorms and Rain
6:00 PM 68.0 °F - 64.4 °F 88% 29.97 in 3.7 mi NE 15.0 mph - N/A Rain Rain
7:00 PM 78 °F - 74 °F 84% 30.06 in 9 mi ESE 5.8 mph - -   Mostly Cloudy
7:00 PM 77.0 °F - 75.2 °F 94% 30.03 in 6.2 mi ENE 4.6 mph - N/A   Mostly Cloudy
8:00 PM 75.2 °F - 69.8 °F 83% 30.05 in 6.2 mi ESE 8.1 mph - N/A   Mostly Cloudy
9:00 PM 75.2 °F - 69.8 °F 83% 30.06 in 6.2 mi Variable 2.3 mph - N/A   Mostly Cloudy
10:00 PM 77 °F - 74 °F 89% 30.07 in 9 mi ESE 5.8 mph - -   Partly Cloudy
10:00 PM 68.0 °F - 64.4 °F 88% 29.97 in 6.2 mi ENE 8.1 mph - N/A   Mostly Cloudy
11:00 PM 71.6 °F - 62.6 °F 73% 30.18 in 6.2 mi NNE 8.1 mph - N/A   Mostly Cloudy